Location: Unspecified
(0.0000°N, 0.0000°E)
Time: 21:57:30
(UTC+00:00)

Vanguard 2 - Visible Passes

Search period start: 23 October 2014 00:00
Search period end: 02 November 2014 00:00
Orbit: 554 x 2947 km, 32.9° (Epoch: 23 October)

Date Brightness Start Highest point End Pass type
(mag) Time Alt. Az. Time Alt. Az. Time Alt. Az.
23 Oct 10.5 02:11:34 21° SE 02:11:34 21° SE 02:14:26 10° SE visible
23 Oct 9.9 04:13:06 20° SW 04:16:36 25° SSW 04:25:39 10° SSE visible
24 Oct 10.2 02:29:51 25° SE 02:29:51 25° SE 02:33:45 10° SE visible
24 Oct 10.3 04:31:22 10° WSW 04:36:50 19° SSW 04:44:17 10° SSE visible
25 Oct 10.1 02:48:05 25° SSE 02:48:05 25° SSE 02:52:44 10° SE visible
25 Oct 10.7 04:52:48 10° SW 04:57:16 14° S 05:02:43 10° SSE visible
26 Oct 10.1 03:06:17 21° S 03:06:17 21° S 03:11:24 10° SSE visible
26 Oct 11.0 05:15:25 10° SSW 05:17:56 11° S 05:20:42 10° S visible
27 Oct 10.3 03:24:27 15° SSW 03:24:47 15° SSW 03:29:39 10° SSE visible
28 Oct 10.5 03:43:27 10° SSW 03:45:01 11° S 03:46:42 10° S visible
